Flag for U.S.A. Weather past 2 weeks in Hartford, Connecticut, U.S.A.

Now
71 °F

Clear.


Feels Like: 72 °F
Forecast: 69 / 82 °F
Wind: 6 mph from South

Location: Hartford-Brainard Airport

Current Time: Jul 6, 2015 at 11:42:40 PM

Latest Report: Jul 6, 2015 at 10:53 PM


Visibility: 10 mi

Pressure: 30.10 "Hg

Humidity: 78%

Dew point: 64 °F

Location of HartfordLocation

Historic Weather in Hartford — Graph

°F

Hartford temperature yesterday

Maximum temperature yesterday: 84 °F (at 3:53 PM)
Minimum temperature yesterday: 58 °F (at 4:53 AM)
Average temperature yesterday: 72 °F

Past Weeks' High & Low Weather Summary

 TemperatureHumidityPressure
High88 °F (Jun 23, 2:53 PM)97% (Jul 2, 5:53 AM)30.16 "Hg (Jul 2, 5:53 AM)
Low57 °F (Jun 28, 5:02 AM)35% (Jul 5, 5:53 PM)29.67 "Hg (Jun 28, 1:53 PM)
Average70 °F70%29.94 "Hg
* Reported Jun 21 9:53 PM — Jul 6 9:53 PM, Hartford, Weather by CustomWeather, © 2015

Note: Actual official high and low records may vary slightly from our data, if they occured in-between our weather recording intervals... More about our weather records

Advertising

Hartford weather history for previous 24 hours

 ConditionsComfort  
Time TempWeatherWind HumidityBarometerVisibility
9:53 PM
Mon, Jul 6
73 °FClear.9 mph76%30.10 "Hg10 mi
8:53 PM75 °FSunny.8 mph71%30.10 "Hg10 mi
7:53 PM77 °FSunny.13 mph66%30.10 "Hg10 mi
6:53 PM79 °FSunny.9 mph62%30.10 "Hg10 mi
5:53 PM82 °FSunny.12 mph58%30.10 "Hg10 mi
4:53 PM83 °FSunny.8 mph57%30.10 "Hg10 mi
3:53 PM84 °FSunny.7 mph53%30.12 "Hg10 mi
2:53 PM84 °FSunny.5 mph48%30.14 "Hg10 mi
1:53 PM83 °FPassing clouds.6 mph50%30.15 "Hg10 mi
12:53 PM82 °FScattered clouds.7 mph53%30.15 "Hg10 mi
11:53 AM81 °FSunny.9 mph62%30.16 "Hg10 mi
10:53 AM78 °FSunny.7 mph64%30.16 "Hg10 mi
9:53 AM75 °FSunny.9 mph74%30.16 "Hg10 mi
8:53 AM70 °FSunny.8 mph84%30.15 "Hg10 mi
7:53 AM67 °FSunny.9 mph90%30.16 "Hg8 mi
6:53 AM65 °FPassing clouds.8 mph94%30.16 "Hg7 mi
5:53 AM63 °FFog.7 mph97%30.16 "Hg2 mi
4:53 AM64 °FFog.7 mph94%30.14 "Hg6 mi
3:53 AM64 °FPassing clouds.8 mph94%30.14 "Hg7 mi
2:53 AM66 °FPassing clouds.No wind90%30.14 "Hg10 mi
1:53 AM67 °FPassing clouds.No wind90%30.14 "Hg10 mi
12:53 AM68 °FClear.3 mph87%30.14 "Hg10 mi
11:53 PM
Sun, Jul 5
69 °FClear.5 mph84%30.14 "Hg10 mi
Weather by CustomWeather, © 2015

See weather overviewHow to use our weather pages